Location: Althorst
(53.6379°N, 10.7715°E)
Time: 06:41:46
(UTC+00:00)

Cosmos 1992 Rocket - Pass Details

Date: 10 December 2019
Orbit: 758 x 766 km, 74.0° (Epoch: 17 January)

Event Time Altitude Azimuth Distance (km) Brightness Sun altitude
Rises 16:05:45 0° 333° (NNW) 3,237 7.3 -9.4°
Reaches altitude 10° 16:08:08 10° 335° (NNW) 2,308 6.5 -9.7°
Maximum altitude 16:13:23 78° 63° (ENE) 787 3.9 -10.4°
Drops below altitude 10° 16:18:36 10° 150° (SSE) 2,298 6.4 -11.1°
Sets 16:20:58 0° 151° (SSE) 3,221 7.2 -11.5°
